Location: Congrier
(47.8099°N, 1.1170°W)
Time: 22:38:06
(UTC+00:00)

Cosmos 1269 Rocket - Pass Details

Date: 28 January 2023
Orbit: 772 x 778 km, 74.1° (Epoch: 01 April)

Event Time Altitude Azimuth Distance (km) Brightness Sun altitude
Rises 17:36:18 0° 204° (SSW) 3,236 8.0 -6.7°
Reaches altitude 10° 17:38:40 10° 205° (SSW) 2,314 7.2 -7.1°
Maximum altitude 17:43:56 81° 293° (WNW) 790 4.2 -7.9°
Drops below altitude 10° 17:49:15 10° 21° (NNE) 2,335 6.1 -8.8°
Sets 17:51:39 0° 22° (NNE) 3,268 6.9 -9.1°
